Regional Weather Roundup
Issued by NWS

Home | Current Version | Previous Version | Text Only | Print | Product List | Glossary Off
Versions: 1 2 3 4 5 6 7 8 9 10 11 12 13 14 15 16 17 18 19 20 21 22 23 24 25 26 27 28 29 30 31 32 33 34 35 36 37 38 39 40 41 42 43 44 45 46 47 48 49 50

000
ASUS43 KFSD 040202
RWRSD

WEATHER ROUNDUP FOR SOUTH DAKOTA
NATIONAL WEATHER SERVICE SIOUX FALLS SD
900 PM CDT THU SEP 03 2015

NOTE: "FAIR" INDICATES FEW OR NO CLOUDS BELOW 12,000 FEET WITH NO
SIGNIFICANT WEATHER AND/OR OBSTRUCTIONS TO VISIBILITY.


SDZ001>005-009-010-012>017-040300-
NORTHWEST AND NORTH CENTRAL SOUTH DAKOTA

CITY           SKY/WX    TMP DP  RH WIND       PRES   REMARKS
BUFFALO          N/A     78  49  35 E7        29.69R
MOBRIDGE       CLOUDY    81  69  67 SE12      29.70R
$$

SDZ012>016-024>037-041>051-057-063-072>074-040300-
SOUTHWEST AND SOUTH CENTRAL SOUTH DAKOTA

CITY           SKY/WX    TMP DP  RH WIND       PRES   REMARKS
RAPID CTY ARPT MOCLDY    79  54  41 S16G22    29.77R
PIERRE         CLOUDY    82  68  62 SE10      29.69S
CUSTER         MOCLDY    77  41  27 SW8       29.95R
ELLSWORTH AFB  MOCLDY    81  55  39 SE15      29.77R
PHILIP         CLOUDY    83  54  36 S9        29.71R
PINE RIDGE     CLOUDY    80  49  33 E8        29.83R
WINNER         FAIR      80  68  66 SE10      29.73S
$$

SDZ004>011-016>023-039-040-040300-
NORTHEAST SOUTH DAKOTA

CITY           SKY/WX    TMP DP  RH WIND       PRES   REMARKS
ABERDEEN       MOCLDY    78  71  79 SE8       29.76R
WATERTOWN      CLEAR     78  71  79 SE8       29.82R
BROOKINGS      CLEAR     79  72  78 SE10      29.84R
$$

SDZ017-020-022-023-036>040-048>070-040300-
SOUTHEAST SOUTH DAKOTA

CITY           SKY/WX    TMP DP  RH WIND       PRES   REMARKS
SIOUX FALLS    MOCLDY    80  72  76 SE8       29.81R
HURON          MOCLDY    79  72  79 SE10      29.75R
CHAMBERLAIN    CLOUDY    78  71  79 SE10      29.73R
MITCHELL       MOCLDY    77  73  87 SE6       29.76R
YANKTON        MOCLDY    79  72  78 E5        29.76R
$$

ABBREVIATIONS USED IN REMARKS
   TC - TEMPERATURE IN CELSIUS
  WCI - WIND CHILL INDEX
   HX - HEAT INDEX
  VSB - VISIBILITY




USA.gov is the U.S. government's official web portal to all federal, state and local government web resources and services.